347P/PanSTARRS (2016)

Japanese version
Home page
Updated on January 17, 2017

---------------------------------------------------------------------

* Profile

Designation 347P/2016 SV
Discovery Date September 21, 2016
Magnitude 19.3 mag
Discoverer Pan-STARRS 1 telescope (Haleakala)

* Pictures

* Orbital Elements

Epoch 2016 Sept. 9.0 TT = JDT 2457640.5
T 2016 Sept. 11.39420 TT                                MPCW
q   2.2239910            (2000.0)            P               Q
n   0.14353555     Peri.   98.44870     +0.97950807     +0.01183433
a   3.6126820      Node   261.04730     -0.08519774     +0.92890274
e   0.3843934      Incl.   11.74385     +0.18249736     +0.37013465
P   6.87
From 105 observations 2002 July 12-2016 Nov. 6, mean residual 0".5.

* Magnitudes Graph

        m1 = 9.0 + 5 log d + 25.0 log r(t - 100)

---------------------------------------------------------------------

The orbital elements are published on M.P.E.C. 2016-V116.
The magnitudes graphs are made with Comet for Windows.

---------------------------------------------------------------------

Copyright(C) Seiichi Yoshida (comet@aerith.net). All rights reserved.